Погода в Каруару

Бразилия     8°16′40″S   35°58′23″W
темп.,
°C
ветер,
м/с
пор.,
м/с
влажн.,
%
обл.,
%
осадки,
мм/ч
давл.,
гПа
погр.,
м
27 февраля, сб
сб2700:00+21вюв129224 0.0 1012159
03:00+20вюв119419 0.0 101126
06:00+20вюв11926 0.0 101268
09:00+26в34614 0.0 1013984
12:00+28вюв335150 0.2 10111465
15:00+27вюв456251 4.1 1008782
18:00+23вюв498370 6.6 1010504
21:00+21вюв388964 6.9 1011454
28 февраля, вс
вс2800:00+21вюв139328 0.0 1011188
03:00+20юв129542 0.0 101053
06:00+20юв129519 0.0 1011201
09:00+25вюв457238 0.0 1012862
12:00+27вюв456097 0.4 10101269
15:00+28вюв565675 1.4 10081379
18:00+23вюв487419 2.0 1009465
21:00+21вюв279210 2.0 1010396
1 марта, пн
пн100:00+20юв12960 0.0 1010101
03:00+20вюв11973 0.0 100829
06:00+20юв12964 0.0 1010157
09:00+25в456723 0.0 10111001
12:00+29в555579 0.4 10091392
15:00+26вюв576886 4.6 10081004
18:00+23вюв598399 3.2 1009653
21:00+21вюв3891100 3.2 1011532
2 марта, вт
вт200:00+20вюв159636 0.0 1011304
03:00+20юв129830 0.1 101052
06:00+20юв169510 0.0 1011365
09:00+25вюв347019 0.1 1013895
12:00+28вюв355486 1.3 10111454
15:00+27юв465792 2.7 10101065
18:00+23вюв487995 0.9 1011442
21:00+21вюв279353 1.0 1013456
3 марта, ср
ср300:00+20вюв11966 0.0 101324
03:00+20ююв11973 0.0 101223
06:00+20ююв11968 0.0 101342
09:00+26в346317 0.0 10151009
12:00+28в345396 0.1 10131485
15:00+28в455587 1.0 10111421
18:00+23вюв47827 1.5 1012429
21:00+21вюв28949 1.5 1014439